QPF
0.01 0.01 0.04 0.03 0.03 0.03 0.03 0.02 0.03 0.02 0.02 0.02 0.03 0.03 0.02 0.02 0.03 0.04 0.03 0.03 0.03 0.03 0.03 0.03 0.04 0.05 0.06 0.05 0.05 0.06 0.05 0.06 0.07 0.08 0.08 0.08 0.08 0.10 0.12 0.09 0.05 0.04 0.06
0.00 0.01 0.03 0.02 0.02 0.02 0.02 0.02 0.04 0.04 0.03 0.03 0.03 0.02 0.02 0.01 0.02 0.03 0.04 0.04 0.04 0.04 0.05 0.04 0.03 0.05 0.06 0.06 0.04 0.04 0.06 0.08 0.08 0.09 0.10 0.11 0.11 0.11 0.12 0.10 0.06 0.05 0.05
0.00 0.00 0.01 0.02 0.02 0.01 0.01 0.01 0.02 0.03 0.04 0.04 0.03 0.04 0.04 0.04 0.05 0.04 0.04 0.04 0.04 0.04 0.05 0.05 0.05 0.05 0.06 0.07 0.05 0.04 0.04 0.06 0.08 0.09 0.11 0.09 0.11 0.12 0.11 0.10 0.08 0.06 0.05
0.00 0.00 0.02 0.03 0.02 0.01 0.01 0.01 0.01 0.02 0.02 0.03 0.02 0.02 0.02 0.02 0.03 0.05 0.06 0.06 0.06 0.06 0.05 0.05 0.04 0.05 0.06 0.06 0.05 0.05 0.04 0.07 0.08 0.08 0.07 0.07 0.10 0.14 0.12 0.09 0.09 0.08 0.06
0.00 0.00 0.02 0.02 0.02 0.02 0.02 0.02 0.02 0.02 0.02 0.02 0.01 0.01 0.01 0.01 0.01 0.02 0.03 0.03 0.04 0.06 0.05 0.06 0.04 0.04 0.05 0.06 0.05 0.05 0.05 0.07 0.09 0.06 0.03 0.04 0.06 0.11 0.10 0.07 0.08 0.09 0.07
0.00 0.00 0.01 0.01 0.01 0.02 0.02 0.02 0.01 0.01 0.00 0.01 0.01 0.02 0.02 0.01 0.01 0.01 0.03 0.03 0.04 0.06 0.06 0.06 0.05 0.04 0.05 0.05 0.06 0.06 0.07 0.07 0.09 0.05 0.03 0.02 0.02 0.07 0.09 0.07 0.07 0.07 0.05
0.00 0.00 0.00 0.00 0.00 0.00 0.01 0.00 0.00 0.00 0.01 0.01 0.01 0.01 0.01 0.01 0.01 0.01 0.08 0.17 0.14 0.07 0.06 0.05 0.04 0.05 0.05 0.05 0.06 0.07 0.07 0.09 0.07 0.05 0.04 0.03 0.02 0.04 0.05 0.05 0.06 0.06 0.04
0.00 0.00 0.00 0.00 0.01 0.00 0.00 0.00 0.00 0.01 0.01 0.01 0.01 0.01 0.01 0.01 0.01 0.01 0.12 0.32 0.26 0.09 0.05 0.04 0.02 0.03 0.05 0.06 0.07 0.09 0.10 0.11 0.08 0.06 0.05 0.04 0.05 0.05 0.05 0.05 0.05 0.04 0.03
0.00 0.00 0.00 0.00 0.00 0.00 0.00 0.00 0.00 0.00 0.01 0.01 0.00 0.00 0.01 0.01 0.01 0.01 0.03 0.11 0.12 0.07 0.04 0.03 0.02 0.02 0.03 0.05 0.07 0.09 0.11 0.12 0.09 0.08 0.07 0.06 0.07 0.07 0.07 0.06 0.05 0.05 0.04
0.00 0.00 0.00 0.00 0.00 0.00 0.00 0.00 0.00 0.00 0.01 0.01 0.01 0.01 0.01 0.00 0.01 0.01 0.01 0.02 0.04 0.03 0.03 0.03 0.02 0.02 0.03 0.04 0.06 0.07 0.10 0.11 0.07 0.07 0.07 0.08 0.09 0.10 0.09 0.08 0.07 0.05 0.04
0.00 0.00 0.00 0.00 0.00 0.00 0.00 0.00 0.00 0.00 0.00 0.01 0.01 0.01 0.02 0.00 0.00 0.01 0.02 0.02 0.02 0.02 0.03 0.04 0.05 0.03 0.03 0.03 0.05 0.09 0.11 0.10 0.10 0.12 0.10 0.07 0.08 0.09 0.09 0.08 0.07 0.06 0.05
0.00 0.00 0.00 0.00 0.00 0.00 0.00 0.00 0.00 0.00 0.00 0.00 0.01 0.02 0.01 0.00 0.00 0.01 0.02 0.03 0.03 0.03 0.03 0.05 0.06 0.04 0.02 0.01 0.03 0.08 0.09 0.10 0.12 0.16 0.15 0.13 0.11 0.11 0.09 0.09 0.08 0.07 0.06
0.00 0.00 0.00 0.00 0.00 0.00 0.00 0.00 0.00 0.00 0.00 0.00 0.00 0.00 0.00 0.00 0.01 0.02 0.01 0.02 0.02 0.03 0.03 0.03 0.04 0.02 0.01 0.01 0.02 0.05 0.11 0.11 0.12 0.16 0.18 0.19 0.15 0.12 0.10 0.09 0.09 0.09 0.08
0.00 0.00 0.00 0.00 0.00 0.00 0.00 0.01 0.01 0.01 0.00 0.01 0.01 0.00 0.00 0.00 0.01 0.01 0.01 0.01 0.02 0.02 0.02 0.02 0.02 0.01 0.01 0.02 0.03 0.04 0.09 0.15 0.15 0.17 0.19 0.20 0.16 0.13 0.12 0.13 0.14 0.14 0.11
0.01 0.01 0.00 0.00 0.00 0.01 0.02 0.02 0.03 0.02 0.01 0.01 0.02 0.01 0.00 0.00 0.01 0.01 0.01 0.01 0.01 0.02 0.03 0.02 0.01 0.01 0.01 0.01 0.01 0.03 0.04 0.09 0.13 0.15 0.17 0.18 0.16 0.14 0.15 0.16 0.18 0.18 0.14
0.02 0.01 0.00 0.00 0.00 0.01 0.03 0.03 0.03 0.03 0.03 0.03 0.02 0.02 0.01 0.00 0.01 0.01 0.01 0.01 0.01 0.02 0.02 0.01 0.00 0.00 0.00 0.01 0.01 0.02 0.02 0.04 0.07 0.10 0.12 0.12 0.14 0.15 0.18 0.20 0.21 0.19 0.17
0.02 0.02 0.01 0.00 0.01 0.01 0.01 0.02 0.02 0.02 0.03 0.03 0.02 0.02 0.02 0.01 0.01 0.01 0.01 0.01 0.02 0.02 0.02 0.01 0.01 0.01 0.01 0.01 0.01 0.01 0.02 0.02 0.04 0.05 0.07 0.09 0.12 0.16 0.18 0.20 0.21 0.19 0.19
0.02 0.01 0.01 0.01 0.01 0.01 0.01 0.01 0.01 0.02 0.03 0.03 0.02 0.03 0.02 0.02 0.01 0.01 0.01 0.01 0.03 0.03 0.02 0.02 0.02 0.01 0.01 0.01 0.01 0.01 0.02 0.03 0.03 0.03 0.05 0.07 0.09 0.13 0.18 0.20 0.19 0.17 0.16
0.02 0.01 0.02 0.02 0.02 0.02 0.01 0.01 0.02 0.03 0.05 0.04 0.04 0.03 0.03 0.02 0.01 0.01 0.01 0.02 0.03 0.02 0.02 0.02 0.02 0.01 0.01 0.02 0.02 0.02 0.02 0.03 0.03 0.03 0.04 0.05 0.07 0.09 0.12 0.17 0.18 0.16 0.17
0.01 0.02 0.02 0.03 0.03 0.03 0.04 0.04 0.06 0.06 0.05 0.05 0.04 0.03 0.03 0.02 0.02 0.02 0.02 0.02 0.02 0.02 0.03 0.03 0.02 0.02 0.01 0.02 0.02 0.02 0.02 0.02 0.02 0.03 0.03 0.04 0.07 0.08 0.08 0.09 0.12 0.11 0.11
0.01 0.02 0.02 0.04 0.04 0.04 0.05 0.06 0.08 0.08 0.08 0.06 0.04 0.03 0.02 0.01 0.02 0.02 0.02 0.02 0.02 0.02 0.03 0.03 0.02 0.02 0.02 0.02 0.02 0.03 0.02 0.02 0.02 0.03 0.04 0.06 0.06 0.05 0.05 0.06 0.08 0.09 0.08
0.02 0.02 0.02 0.02 0.03 0.04 0.04 0.04 0.05 0.06 0.06 0.05 0.05 0.04 0.03 0.02 0.02 0.02 0.02 0.03 0.02 0.02 0.03 0.03 0.03 0.02 0.03 0.02 0.02 0.02 0.02 0.03 0.03 0.03 0.04 0.06 0.07 0.06 0.06 0.06 0.06 0.08 0.08
0.03 0.02 0.02 0.01 0.02 0.02 0.02 0.01 0.01 0.02 0.02 0.02 0.02 0.02 0.02 0.01 0.01 0.01 0.02 0.02 0.02 0.02 0.03 0.04 0.04 0.04 0.04 0.03 0.02 0.02 0.02 0.02 0.03 0.03 0.03 0.03 0.05 0.05 0.05 0.06 0.06 0.09 0.10
0.02 0.02 0.02 0.02 0.02 0.02 0.01 0.01 0.00 0.00 0.00 0.00 0.01 0.01 0.01 0.00 0.00 0.00 0.01 0.03 0.02 0.03 0.03 0.04 0.05 0.05 0.04 0.04 0.05 0.04 0.03 0.02 0.02 0.03 0.03 0.03 0.03 0.03 0.04 0.05 0.05 0.06 0.09
0.01 0.03 0.04 0.04 0.03 0.02 0.02 0.01 0.01 0.01 0.01 0.01 0.00 0.00 0.00 0.00 0.00 0.00 0.01 0.02 0.04 0.03 0.03 0.04 0.05 0.05 0.04 0.04 0.06 0.05 0.03 0.03 0.03 0.03 0.04 0.05 0.04 0.04 0.04 0.05 0.05 0.04 0.06
0.01 0.02 0.03 0.03 0.04 0.03 0.02 0.02 0.02 0.02 0.01 0.01 0.01 0.00 0.00 0.00 0.00 0.00 0.01 0.02 0.04 0.04 0.05 0.06 0.05 0.05 0.05 0.04 0.05 0.06 0.06 0.06 0.05 0.04 0.04 0.04 0.04 0.05 0.04 0.04 0.04 0.04 0.05
MSLP
1011.02 1010.23 1009.66 1009.35 1009.23 1009.21 1009.21 1009.13 1008.93 1008.60 1008.18 1007.73 1007.31 1006.97 1006.73 1006.60 1006.54 1006.52 1006.52 1006.53 1006.54 1006.60 1006.73 1006.95 1007.28 1007.70 1008.18 1008.69 1009.18 1009.62 1010.02 1010.37 1010.71 1011.06 1011.43 1011.84 1012.27 1012.71 1013.12 1013.48 1013.78 1014.02 1014.21
1011.03 1010.33 1009.82 1009.53 1009.40 1009.33 1009.26 1009.11 1008.85 1008.48 1008.05 1007.61 1007.23 1006.93 1006.72 1006.59 1006.52 1006.46 1006.39 1006.32 1006.25 1006.25 1006.33 1006.52 1006.85 1007.28 1007.78 1008.31 1008.83 1009.30 1009.72 1010.09 1010.44 1010.81 1011.20 1011.62 1012.07 1012.52 1012.94 1013.33 1013.65 1013.92 1014.16
1011.01 1010.40 1009.96 1009.69 1009.54 1009.44 1009.32 1009.12 1008.82 1008.44 1008.01 1007.61 1007.26 1006.99 1006.81 1006.69 1006.58 1006.47 1006.32 1006.17 1006.02 1005.94 1005.96 1006.12 1006.41 1006.84 1007.35 1007.89 1008.43 1008.94 1009.39 1009.81 1010.22 1010.62 1011.05 1011.49 1011.96 1012.41 1012.84 1013.23 1013.57 1013.87 1014.13
1011.00 1010.48 1010.09 1009.84 1009.68 1009.55 1009.39 1009.15 1008.83 1008.45 1008.04 1007.67 1007.36 1007.13 1006.96 1006.83 1006.70 1006.53 1006.32 1006.09 1005.88 1005.72 1005.69 1005.79 1006.05 1006.45 1006.94 1007.48 1008.04 1008.57 1009.08 1009.56 1010.03 1010.50 1010.98 1011.46 1011.95 1012.41 1012.83 1013.21 1013.55 1013.85 1014.14
1011.05 1010.59 1010.24 1010.00 1009.83 1009.67 1009.48 1009.22 1008.88 1008.50 1008.12 1007.78 1007.50 1007.29 1007.14 1007.00 1006.84 1006.64 1006.39 1006.11 1005.84 1005.64 1005.56 1005.61 1005.82 1006.16 1006.61 1007.12 1007.66 1008.21 1008.76 1009.31 1009.85 1010.40 1010.95 1011.49 1011.99 1012.46 1012.88 1013.24 1013.56 1013.87 1014.17
1011.21 1010.79 1010.46 1010.22 1010.02 1009.83 1009.60 1009.31 1008.97 1008.59 1008.22 1007.90 1007.64 1007.45 1007.30 1007.16 1006.99 1006.78 1006.51 1006.22 1005.93 1005.71 1005.59 1005.60 1005.74 1006.00 1006.38 1006.82 1007.32 1007.85 1008.41 1009.01 1009.62 1010.26 1010.88 1011.48 1012.03 1012.52 1012.92 1013.27 1013.58 1013.87 1014.18
1011.52 1011.11 1010.78 1010.52 1010.29 1010.05 1009.78 1009.46 1009.09 1008.71 1008.34 1008.03 1007.78 1007.60 1007.45 1007.31 1007.14 1006.93 1006.68 1006.40 1006.14 1005.92 1005.78 1005.74 1005.80 1005.97 1006.23 1006.56 1006.97 1007.45 1007.99 1008.61 1009.28 1009.99 1010.71 1011.38 1011.99 1012.50 1012.92 1013.26 1013.55 1013.84 1014.14
1011.99 1011.57 1011.22 1010.92 1010.64 1010.35 1010.03 1009.67 1009.27 1008.87 1008.50 1008.18 1007.93 1007.74 1007.59 1007.45 1007.29 1007.10 1006.88 1006.65 1006.42 1006.22 1006.07 1005.99 1005.97 1006.03 1006.14 1006.33 1006.61 1006.99 1007.47 1008.08 1008.78 1009.56 1010.35 1011.11 1011.79 1012.36 1012.81 1013.16 1013.45 1013.74 1014.04
1012.58 1012.15 1011.77 1011.43 1011.10 1010.75 1010.38 1009.96 1009.53 1009.11 1008.72 1008.39 1008.12 1007.92 1007.75 1007.61 1007.45 1007.29 1007.10 1006.91 1006.72 1006.55 1006.41 1006.28 1006.19 1006.11 1006.08 1006.11 1006.23 1006.47 1006.87 1007.43 1008.14 1008.97 1009.83 1010.68 1011.44 1012.08 1012.59 1012.97 1013.29 1013.58 1013.89
1013.25 1012.81 1012.41 1012.02 1011.64 1011.23 1010.80 1010.35 1009.88 1009.43 1009.02 1008.67 1008.38 1008.15 1007.97 1007.80 1007.64 1007.49 1007.33 1007.17 1007.02 1006.87 1006.73 1006.57 1006.40 1006.21 1006.03 1005.90 1005.86 1005.96 1006.25 1006.75 1007.44 1008.28 1009.20 1010.13 1010.98 1011.70 1012.28 1012.72 1013.07 1013.38 1013.70
1013.94 1013.51 1013.09 1012.67 1012.24 1011.79 1011.31 1010.81 1010.31 1009.84 1009.41 1009.04 1008.73 1008.47 1008.25 1008.06 1007.88 1007.71 1007.55 1007.41 1007.28 1007.15 1007.00 1006.81 1006.58 1006.31 1006.02 1005.75 1005.57 1005.54 1005.72 1006.14 1006.78 1007.62 1008.57 1009.55 1010.47 1011.27 1011.92 1012.43 1012.83 1013.17 1013.51
1014.61 1014.19 1013.76 1013.33 1012.87 1012.38 1011.87 1011.34 1010.82 1010.33 1009.89 1009.51 1009.17 1008.88 1008.63 1008.39 1008.17 1007.97 1007.79 1007.63 1007.50 1007.37 1007.21 1007.02 1006.76 1006.43 1006.07 1005.71 1005.44 1005.31 1005.39 1005.73 1006.31 1007.11 1008.06 1009.05 1010.01 1010.87 1011.58 1012.14 1012.59 1012.97 1013.33
1015.20 1014.82 1014.40 1013.96 1013.48 1012.98 1012.44 1011.91 1011.38 1010.89 1010.45 1010.05 1009.70 1009.38 1009.08 1008.79 1008.52 1008.26 1008.04 1007.85 1007.70 1007.55 1007.40 1007.20 1006.94 1006.61 1006.23 1005.84 1005.52 1005.34 1005.35 1005.61 1006.13 1006.86 1007.76 1008.72 1009.67 1010.53 1011.27 1011.88 1012.36 1012.77 1013.16
1015.72 1015.37 1014.98 1014.54 1014.07 1013.56 1013.03 1012.49 1011.97 1011.49 1011.04 1010.64 1010.27 1009.92 1009.58 1009.24 1008.91 1008.60 1008.32 1008.09 1007.89 1007.73 1007.58 1007.39 1007.16 1006.87 1006.53 1006.17 1005.86 1005.67 1005.65 1005.85 1006.28 1006.92 1007.72 1008.59 1009.47 1010.29 1011.01 1011.62 1012.12 1012.56 1012.97
1016.17 1015.85 1015.48 1015.07 1014.61 1014.11 1013.59 1013.07 1012.57 1012.10 1011.66 1011.26 1010.88 1010.50 1010.12 1009.74 1009.35 1008.98 1008.64 1008.36 1008.13 1007.94 1007.79 1007.63 1007.44 1007.22 1006.96 1006.68 1006.43 1006.28 1006.25 1006.41 1006.75 1007.27 1007.93 1008.67 1009.42 1010.14 1010.78 1011.35 1011.84 1012.28 1012.72
1016.56 1016.27 1015.93 1015.54 1015.11 1014.64 1014.15 1013.65 1013.17 1012.71 1012.28 1011.88 1011.48 1011.08 1010.67 1010.25 1009.82 1009.40 1009.02 1008.68 1008.41 1008.20 1008.04 1007.91 1007.78 1007.64 1007.48 1007.31 1007.16 1007.07 1007.07 1007.20 1007.46 1007.85 1008.35 1008.90 1009.47 1010.03 1010.55 1011.04 1011.49 1011.93 1012.39
1016.91 1016.65 1016.33 1015.98 1015.58 1015.15 1014.70 1014.24 1013.79 1013.34 1012.91 1012.50 1012.09 1011.66 1011.23 1010.78 1010.32 1009.86 1009.44 1009.07 1008.76 1008.53 1008.36 1008.24 1008.16 1008.09 1008.03 1007.97 1007.93 1007.93 1007.97 1008.09 1008.28 1008.54 1008.86 1009.22 1009.59 1009.96 1010.32 1010.69 1011.07 1011.49 1011.96
1017.26 1017.00 1016.72 1016.40 1016.04 1015.67 1015.27 1014.85 1014.43 1013.99 1013.57 1013.13 1012.70 1012.25 1011.79 1011.32 1010.84 1010.37 1009.92 1009.52 1009.19 1008.92 1008.73 1008.61 1008.55 1008.53 1008.54 1008.58 1008.64 1008.72 1008.82 1008.94 1009.08 1009.24 1009.40 1009.56 1009.72 1009.89 1010.09 1010.32 1010.63 1011.01 1011.49
1017.58 1017.34 1017.08 1016.80 1016.51 1016.19 1015.85 1015.49 1015.10 1014.68 1014.25 1013.80 1013.33 1012.86 1012.37 1011.88 1011.40 1010.92 1010.47 1010.05 1009.69 1009.39 1009.16 1009.00 1008.93 1008.92 1008.97 1009.07 1009.20 1009.35 1009.51 1009.65 1009.76 1009.84 1009.87 1009.88 1009.86 1009.85 1009.88 1009.99 1010.21 1010.55 1011.03
1017.88 1017.65 1017.42 1017.19 1016.95 1016.71 1016.44 1016.14 1015.79 1015.40 1014.96 1014.49 1014.00 1013.50 1012.99 1012.49 1012.00 1011.53 1011.08 1010.65 1010.26 1009.92 1009.64 1009.43 1009.30 1009.25 1009.29 1009.41 1009.57 1009.77 1009.97 1010.14 1010.26 1010.29 1010.26 1010.15 1010.00 1009.86 1009.76 1009.75 1009.88 1010.18 1010.64
1018.14 1017.93 1017.72 1017.53 1017.35 1017.19 1016.99 1016.76 1016.47 1016.11 1015.68 1015.20 1014.69 1014.16 1013.64 1013.13 1012.65 1012.19 1011.75 1011.32 1010.91 1010.53 1010.18 1009.89 1009.67 1009.55 1009.53 1009.61 1009.77 1009.98 1010.21 1010.41 1010.54 1010.59 1010.53 1010.37 1010.16 1009.93 1009.74 1009.65 1009.71 1009.96 1010.40
1018.34 1018.14 1017.95 1017.80 1017.68 1017.58 1017.47 1017.32 1017.09 1016.77 1016.37 1015.89 1015.37 1014.83 1014.30 1013.79 1013.32 1012.88 1012.45 1012.03 1011.61 1011.18 1010.77 1010.39 1010.07 1009.84 1009.72 1009.72 1009.82 1010.01 1010.24 1010.46 1010.64 1010.71 1010.67 1010.53 1010.31 1010.06 1009.83 1009.70 1009.71 1009.91 1010.31
1018.46 1018.27 1018.09 1017.97 1017.90 1017.86 1017.82 1017.74 1017.58 1017.32 1016.96 1016.51 1016.00 1015.46 1014.93 1014.43 1013.97 1013.55 1013.15 1012.74 1012.31 1011.86 1011.39 1010.92 1010.49 1010.14 1009.90 1009.78 1009.80 1009.92 1010.13 1010.35 1010.56 1010.68 1010.71 1010.62 1010.45 1010.23 1010.01 1009.87 1009.86 1010.03 1010.38
1018.51 1018.32 1018.14 1018.03 1017.98 1017.98 1018.00 1017.99 1017.90 1017.71 1017.41 1016.99 1016.51 1015.99 1015.47 1014.99 1014.55 1014.15 1013.77 1013.39 1012.97 1012.51 1012.00 1011.46 1010.94 1010.47 1010.09 1009.85 1009.75 1009.78 1009.92 1010.13 1010.34 1010.52 1010.61 1010.61 1010.52 1010.38 1010.23 1010.12 1010.11 1010.25 1010.56
1018.49 1018.30 1018.12 1017.99 1017.95 1017.97 1018.02 1018.06 1018.04 1017.92 1017.68 1017.32 1016.88 1016.39 1015.89 1015.42 1015.00 1014.62 1014.27 1013.91 1013.52 1013.06 1012.54 1011.97 1011.38 1010.81 1010.32 1009.94 1009.71 1009.63 1009.68 1009.83 1010.03 1010.23 1010.39 1010.48 1010.50 1010.46 1010.40 1010.35 1010.38 1010.52 1010.79
1018.44 1018.25 1018.05 1017.90 1017.84 1017.86 1017.93 1018.01 1018.04 1017.98 1017.79 1017.49 1017.09 1016.63 1016.16 1015.70 1015.29 1014.93 1014.60 1014.27 1013.90 1013.48 1012.97 1012.40 1011.77 1011.14 1010.56 1010.07 1009.71 1009.50 1009.44 1009.51 1009.66 1009.86 1010.06 1010.23 1010.35 1010.43 1010.48 1010.53 1010.61 1010.76 1011.01
Thickness
5787 5787 5785 5782 5780 5779 5777 5776 5774 5773 5772 5771 5771 5770 5770 5770 5769 5769 5769 5768 5768 5767 5767 5766 5766 5766 5766 5766 5766 5767 5766 5766 5765 5765 5764 5763 5762 5761 5760 5759 5759 5758 5757
5792 5789 5786 5782 5779 5778 5776 5775 5773 5772 5771 5770 5769 5768 5768 5768 5768 5767 5767 5767 5766 5766 5765 5765 5765 5765 5764 5764 5764 5765 5764 5764 5764 5763 5762 5761 5760 5759 5758 5757 5756 5756 5755
5792 5788 5785 5781 5778 5776 5775 5774 5772 5771 5769 5768 5767 5767 5766 5766 5766 5765 5765 5765 5764 5764 5764 5763 5763 5762 5762 5762 5762 5763 5762 5762 5762 5761 5761 5760 5759 5758 5757 5756 5755 5753 5752
5792 5787 5784 5781 5777 5775 5773 5772 5770 5769 5768 5767 5766 5765 5765 5764 5764 5763 5763 5763 5762 5762 5762 5761 5761 5760 5760 5760 5760 5760 5760 5760 5760 5760 5759 5758 5758 5757 5756 5755 5753 5752 5750
5790 5786 5783 5780 5776 5774 5772 5770 5768 5767 5766 5765 5764 5764 5763 5762 5762 5761 5761 5760 5760 5760 5760 5759 5759 5758 5758 5758 5758 5758 5758 5758 5758 5758 5757 5756 5756 5755 5755 5753 5752 5750 5748
5788 5784 5782 5779 5775 5773 5770 5768 5767 5765 5764 5764 5763 5762 5762 5761 5760 5759 5759 5758 5758 5758 5758 5757 5757 5756 5756 5756 5756 5756 5757 5757 5757 5756 5755 5755 5754 5753 5752 5751 5750 5748 5746
5786 5783 5780 5777 5774 5772 5769 5767 5765 5764 5763 5762 5761 5760 5760 5759 5758 5757 5757 5758 5756 5756 5755 5755 5755 5755 5754 5754 5754 5754 5755 5755 5754 5753 5753 5752 5752 5751 5750 5749 5747 5746 5744
5785 5782 5778 5776 5773 5771 5768 5766 5764 5762 5761 5760 5759 5759 5758 5757 5756 5756 5755 5756 5754 5753 5753 5753 5753 5753 5752 5752 5752 5752 5752 5752 5752 5751 5750 5750 5750 5749 5748 5746 5745 5743 5742
5783 5780 5777 5774 5772 5770 5767 5765 5763 5761 5760 5759 5758 5757 5756 5755 5755 5754 5753 5752 5751 5751 5751 5751 5751 5751 5751 5750 5750 5750 5750 5749 5749 5749 5748 5748 5747 5747 5746 5744 5743 5741 5739
5780 5777 5775 5773 5770 5768 5766 5764 5762 5760 5758 5757 5756 5755 5754 5753 5753 5752 5751 5751 5750 5749 5749 5749 5749 5749 5749 5749 5748 5748 5747 5747 5746 5747 5746 5745 5745 5745 5743 5742 5741 5739 5738
5777 5775 5773 5771 5769 5767 5764 5762 5760 5758 5757 5756 5754 5753 5752 5751 5750 5750 5750 5749 5748 5748 5747 5747 5747 5747 5747 5747 5747 5746 5746 5745 5745 5745 5744 5744 5743 5743 5741 5740 5739 5738 5736
5774 5773 5772 5770 5767 5765 5763 5761 5759 5757 5755 5754 5753 5751 5750 5749 5748 5748 5747 5747 5746 5746 5746 5746 5745 5745 5744 5744 5744 5744 5743 5743 5744 5743 5743 5743 5742 5741 5740 5738 5737 5736 5734
5774 5773 5771 5769 5766 5764 5762 5760 5757 5755 5754 5752 5751 5749 5748 5747 5746 5746 5745 5745 5744 5744 5744 5743 5743 5742 5742 5742 5741 5741 5741 5741 5742 5742 5741 5741 5740 5739 5738 5737 5736 5734 5733
5772 5771 5770 5768 5765 5762 5760 5758 5756 5754 5752 5750 5749 5748 5746 5745 5744 5744 5743 5742 5742 5742 5741 5741 5740 5740 5739 5739 5739 5739 5739 5739 5739 5739 5739 5739 5739 5738 5737 5735 5734 5733 5732
5771 5770 5769 5767 5764 5761 5759 5757 5755 5753 5751 5749 5747 5746 5745 5744 5742 5742 5741 5740 5740 5740 5739 5739 5738 5738 5737 5737 5736 5736 5736 5736 5736 5737 5737 5737 5737 5737 5736 5735 5733 5732 5731
5770 5768 5768 5766 5763 5760 5757 5755 5753 5751 5749 5747 5746 5744 5744 5742 5741 5740 5739 5739 5738 5737 5737 5737 5736 5735 5735 5734 5734 5734 5734 5734 5734 5733 5734 5735 5736 5736 5735 5734 5732 5731 5729
5769 5768 5766 5764 5762 5759 5756 5754 5752 5750 5748 5746 5744 5743 5742 5741 5740 5739 5738 5737 5736 5736 5735 5735 5734 5733 5732 5732 5731 5731 5731 5731 5731 5731 5732 5733 5734 5734 5733 5733 5732 5730 5728
5769 5766 5764 5764 5760 5757 5755 5753 5751 5748 5746 5744 5743 5741 5741 5740 5739 5738 5737 5736 5735 5734 5733 5732 5731 5730 5729 5728 5728 5728 5728 5728 5728 5729 5729 5729 5730 5731 5731 5730 5730 5729 5727
5768 5765 5762 5761 5759 5756 5754 5751 5749 5746 5744 5743 5741 5740 5739 5738 5737 5736 5736 5734 5733 5733 5732 5731 5729 5728 5726 5725 5725 5725 5725 5725 5725 5726 5726 5726 5727 5727 5728 5728 5728 5728 5726
5767 5764 5761 5759 5757 5754 5752 5749 5746 5743 5742 5741 5739 5738 5738 5737 5736 5735 5734 5733 5732 5731 5729 5729 5727 5726 5725 5724 5724 5723 5723 5723 5723 5723 5724 5724 5724 5724 5724 5725 5725 5724 5724
5764 5761 5759 5756 5754 5752 5749 5745 5742 5740 5739 5738 5737 5737 5736 5735 5734 5733 5732 5731 5730 5728 5727 5727 5726 5724 5722 5722 5720 5719 5720 5722 5722 5722 5722 5721 5721 5722 5722 5722 5722 5721 5721
5762 5760 5757 5755 5753 5751 5749 5745 5743 5740 5738 5736 5735 5735 5734 5734 5732 5731 5730 5728 5728 5727 5726 5725 5724 5722 5721 5721 5718 5715 5713 5715 5718 5719 5719 5719 5719 5719 5719 5719 5719 5719 5718
5761 5759 5758 5754 5751 5749 5746 5743 5740 5737 5735 5733 5732 5732 5732 5731 5730 5729 5728 5727 5726 5726 5724 5724 5723 5721 5719 5719 5719 5715 5710 5708 5711 5714 5715 5716 5716 5716 5716 5716 5716 5716 5715
5759 5758 5755 5752 5749 5747 5744 5740 5736 5733 5730 5730 5730 5730 5730 5730 5728 5728 5727 5726 5725 5724 5723 5723 5722 5721 5719 5717 5717 5716 5715 5714 5710 5707 5711 5712 5713 5713 5713 5713 5713 5713 5713
5759 5756 5753 5749 5746 5744 5742 5739 5735 5732 5730 5729 5728 5727 5727 5727 5726 5726 5725 5724 5723 5722 5721 5721 5720 5720 5719 5717 5716 5715 5713 5712 5711 5707 5705 5707 5708 5710 5710 5710 5710 5710 5710
5756 5753 5750 5746 5744 5742 5739 5736 5733 5730 5728 5726 5725 5724 5723 5723 5723 5724 5723 5722 5721 5721 5720 5719 5719 5718 5717 5717 5716 5715 5713 5711 5709 5707 5704 5703 5704 5706 5707 5708 5708 5707 5708